This demonstration page uses our WeatherBlox Daily Observations layout. Learn more.

Left ArrowRight Arrow

41.12389, -100.76542

Hourly Observations for November 21, 2016

Temp ( °F °C ) Dew Point ( °F °C ) Humidity (%) Winds ( mph kmh ) Pressure ( in mb ) Visibility ( mi km ) Precip ( " mm )
12:38 am 00:38 Clear with Mist and Fog 27 -3 25 -4 93 93 Calm 30.18 1022 3 4 0.00 0.00
12:51 am 00:51 Clear with Mist and Fog 25 -4 21 -6 86 86 NE 3 6 30.18 1022 5 8 0.00 0.00
12:53 am 00:53 Clear with Mist and Fog 25 -3.9 22 -5.6 88 88 NE 3 6 30.09 1019 6 10 0.00 0.00
1:53 am 01:53 Clear 27 -2.8 25 -3.9 92 92 Calm 30.07 1018 8 13 0.00 0.00
2:53 am 02:53 Clear with Mist and Fog 25 -3.9 23 -5 92 92 ENE 5 7 30.05 1018 6 10 0.00 0.00
3:53 am 03:53 Clear 25 -3.9 23 -5 92 92 NE 5 7 30.04 1017 8 13 0.00 0.00
4:53 am 04:53 Clear 27 -2.8 25 -3.9 92 92 Calm 30.02 1017 8 13 0.00 0.00
5:53 am 05:53 Clear 28 -2.2 26 -3.3 92 92 ESE 3 6 30.02 1017 8 13 0.00 0.00
6:53 am 06:53 Mostly Clear 30 -1.1 27 -2.8 88 88 E 6 9 30.02 1017 10 16 0.00 0.00
7:53 am 07:53 Sunny 31 -0.6 28 -2.2 89 89 ESE 5 7 30.04 1017 10 16 0.00 0.00
8:53 am 08:53 Mostly Sunny 32 0 29 -1.7 88 88 ESE 12 19 30.05 1018 10 16 0.00 0.00
9:53 am 09:53 Mostly Cloudy 36 2.2 30 -1.1 79 79 ESE 10 17 30.01 1016 10 16 0.00 0.00
10:53 am 10:53 Cloudy 40 4.4 31 -0.6 70 70 E 10 17 29.96 1015 10 16 0.00 0.00
11:53 am 11:53 Cloudy 43 6.1 30 -1.1 60 60 SE 9 15 29.96 1015 10 16 0.00 0.00
12:53 pm 12:53 Cloudy 45 7.2 30 -1.1 56 56 SSE 9 15 29.94 1014 10 16 0.00 0.00
1:53 pm 13:53 Mostly Cloudy 45 7.2 31 -0.6 58 58 SE 13 20 29.86 1011 10 16 0.00 0.00
2:53 pm 14:53 Cloudy 46 7.8 31 -0.6 56 56 SE 12 19 29.84 1011 10 16 0.00 0.00
3:53 pm 15:53 Cloudy 44 6.7 32 0 63 63 ESE 14 22 29.82 1010 10 16 0.00 0.00
4:53 pm 16:53 Cloudy 46 7.8 32 0 58 58 ESE 10 17 29.81 1010 10 16 0.00 0.00
5:53 pm 17:53 Cloudy 45 7.2 33 0.6 63 63 S 5 7 29.83 1010 10 16 0.00 0.00
6:53 pm 18:53 Partly Cloudy 42 5.6 33 0.6 71 71 E 9 15 29.84 1011 10 16 0.00 0.00
7:53 pm 19:53 Mostly Cloudy 40 4.4 34 1.1 79 79 ESE 9 15 29.83 1010 10 16 0.00 0.00
8:53 pm 20:53 Clear 37 2.8 33 0.6 86 86 E 7 11 29.83 1010 10 16 0.00 0.00
9:53 pm 21:53 Clear 35 1.7 33 0.6 93 93 E 7 11 29.82 1010 10 16 0.00 0.00
10:53 pm 22:53 Clear 35 1.7 32 0 89 89 ESE 8 13 29.79 1009 10 16 0.00 0.00
11:53 pm 23:53 Clear 35 1.7 33 0.6 93 93 ESE 6 9 29.78 1009 10 16 0.00 0.00

Powered by AerisWeather